Weather History for Saipan, MP

Change the Weather History Date:

Monday, November 14, 2011

  Actual Average Record
Temperature  
Mean Temperature 80 °F -  
Max Temperature 84 °F 84 °F 89 °F (2012)
Min Temperature 75 °F 76 °F 73 °F (2013)
Cooling Degree Days 14    
Growing Degree Days 30 (Base 50)    
Moisture  
Dew Point 76 °F    
Average Humidity 84    
Maximum Humidity 97    
Minimum Humidity 74    
Precipitation  
Precipitation 0.05 in - - ()
Sea Level Pressure  
Sea Level Pressure 29.93 in    
Wind  
Wind Speed 13 mph (ENE)    
Max Wind Speed 22 mph    
Max Gust Speed 29 mph    
Visibility 10 miles    
Events Rain    
Averages and records for this station are not official NWS values.
T = Trace of Precipitation, MM = Missing Value Source: NWS Daily Summary

Daily Weather History Graph

Daily Weather History Graph

Search for Another Location

Airport:

Trip Planner

Search our weather history database for the weather conditions in past years. The results will help you decide how hot, cold, wet, or windy it might be!

Date:

Astronomy

Nov. 14, 2011 Rise Set
Actual Time 6:17 AM ChST 5:44 PM ChST
Civil Twilight 5:55 AM ChST 6:07 PM ChST
Nautical Twilight 5:29 AM ChST 6:33 PM ChST
Astronomical Twilight 5:03 AM ChST 6:58 PM ChST
Moon 8:26 PM ChST (11/14) 8:52 AM ChST (11/14)
Length of Visible Light 12h 11m
Length of Day
11h 26m
Waning Gibbous, 90% of the Moon is Illuminated
Nov 14
Waning Gibbous
Nov 19
Last Quarter
Nov 25
New
Dec 2
First Quarter
Dec 11
Full

Hourly Weather History & Observations

Time (ChST) Temp. Heat Index Dew Point Humidity Pressure Visibility Wind Dir Wind Speed Gust Speed Precip Events Conditions
12:54 AM 81.0 °F 87.3 °F 75.9 °F 85% 29.94 in 10.0 mi ENE 11.5 mph - N/A   Mostly Cloudy
1:01 AM 80.6 °F 86.2 °F 75.2 °F 84% 29.87 in 10.0 mi ENE 11.5 mph - N/A   Overcast
1:09 AM 80.6 °F 87.1 °F 77.0 °F 89% 29.87 in 10.0 mi ENE 11.5 mph - N/A   Overcast
1:54 AM 80.1 °F 85.4 °F 75.9 °F 87% 29.92 in 10.0 mi ENE 13.8 mph - N/A   Overcast
2:54 AM 80.1 °F 85.4 °F 75.9 °F 87% 29.91 in 10.0 mi NE 11.5 mph - N/A   Scattered Clouds
3:54 AM 80.1 °F 85.8 °F 77.0 °F 90% 29.91 in 10.0 mi NE 11.5 mph - 0.02 in   Scattered Clouds
4:54 AM 75.9 °F - 75.0 °F 97% 29.93 in 10.0 mi NNE 12.7 mph 21.9 mph 0.00 in   Overcast
5:54 AM 78.1 °F - 75.9 °F 93% 29.95 in 8.0 mi ENE 19.6 mph 25.3 mph 0.00 in Rain Light Rain
6:19 AM 75.2 °F - 73.4 °F 94% 29.89 in 7.0 mi NE 21.9 mph 28.8 mph 0.00 in   Overcast
6:54 AM 75.9 °F - 73.9 °F 94% 29.97 in 7.0 mi NE 13.8 mph - 0.00 in Rain Light Rain
7:54 AM 79.0 °F - 75.0 °F 88% 29.97 in 10.0 mi NE 6.9 mph - 0.00 in Rain Light Rain
8:54 AM 82.0 °F 89.4 °F 75.9 °F 82% 29.98 in 10.0 mi NE 15.0 mph 19.6 mph 0.00 in   Scattered Clouds
9:54 AM 82.9 °F 90.2 °F 75.0 °F 77% 29.96 in 10.0 mi NE 17.3 mph - N/A   Scattered Clouds
10:54 AM 84.9 °F 94.1 °F 75.9 °F 74% 29.95 in 10.0 mi ENE 16.1 mph - N/A   Scattered Clouds
11:54 AM 84.9 °F 94.1 °F 75.9 °F 74% 29.93 in 10.0 mi NE 15.0 mph - N/A   Scattered Clouds
12:54 PM 84.0 °F 92.6 °F 75.9 °F 76% 29.91 in 10.0 mi ENE 15.0 mph - N/A   Mostly Cloudy
1:54 PM 84.0 °F 92.6 °F 75.9 °F 76% 29.90 in 10.0 mi ENE 16.1 mph - N/A   Mostly Cloudy
2:54 PM 84.9 °F 94.1 °F 75.9 °F 74% 29.89 in 10.0 mi East 17.3 mph - N/A   Scattered Clouds
3:54 PM 84.9 °F 94.1 °F 75.9 °F 74% 29.89 in 10.0 mi ENE 13.8 mph - N/A   Scattered Clouds
4:54 PM 81.0 °F 87.3 °F 75.9 °F 85% 29.90 in 10.0 mi ENE 12.7 mph - 0.03 in Rain Light Rain
5:54 PM 80.1 °F 85.4 °F 75.9 °F 87% 29.91 in 10.0 mi ENE 9.2 mph - 0.00 in   Mostly Cloudy
6:54 PM 80.1 °F 85.4 °F 75.9 °F 87% 29.94 in 10.0 mi ENE 9.2 mph - N/A   Mostly Cloudy
7:54 PM 81.0 °F 86.7 °F 75.0 °F 82% 29.95 in 10.0 mi ENE 10.4 mph - N/A   Scattered Clouds
8:54 PM 81.0 °F 87.9 °F 77.0 °F 88% 29.96 in 10.0 mi NE 9.2 mph - N/A   Mostly Cloudy
9:54 PM 81.0 °F 87.3 °F 75.9 °F 85% 29.96 in 10.0 mi ENE 10.4 mph - N/A   Mostly Cloudy
10:54 PM 80.1 °F 85.4 °F 75.9 °F 87% 29.96 in 10.0 mi East 9.2 mph - N/A   Mostly Cloudy
11:54 PM 80.1 °F 85.1 °F 75.0 °F 85% 29.95 in 10.0 mi ENE 12.7 mph - N/A   Scattered Clouds